Time,TemperatureF,DewpointF,PressureIn,WindDirection,WindDirectionDegrees,WindSpeedMPH,WindSpeedGustMPH,Humidity,HourlyPrecipIn,Conditions,Clouds,dailyrainin,SoftwareType,DateUTC
2013-01-15 00:00:00,8.9,1.1,30.46,NE,34,0.0,0.0,70,0.00,,,0.00,Wunderground v.1.15,2013-01-15 06:00:00,
2013-01-15 00:06:00,8.8,1.0,30.46,NE,35,0.0,0.0,70,0.00,,,0.00,Wunderground v.1.15,2013-01-15 06:06:00,
2013-01-15 00:12:00,8.8,1.0,30.45,NE,35,0.0,0.0,70,0.00,,,0.00,Wunderground v.1.15,2013-01-15 06:12:00,
2013-01-15 00:18:00,8.7,0.9,30.45,NE,34,0.0,0.0,70,0.00,,,0.00,Wunderground v.1.15,2013-01-15 06:18:00,
2013-01-15 00:24:00,8.7,1.2,30.45,NE,35,0.0,0.0,71,0.00,,,0.00,Wunderground v.1.15,2013-01-15 06:24:00,
2013-01-15 00:30:00,8.7,0.9,30.45,NE,34,0.0,0.0,70,0.00,,,0.00,Wunderground v.1.15,2013-01-15 06:30:00,
2013-01-15 00:36:00,8.6,1.1,30.45,NE,35,0.0,0.0,71,0.00,,,0.00,Wunderground v.1.15,2013-01-15 06:36:00,
2013-01-15 00:42:00,8.5,1.0,30.46,NE,35,0.0,0.0,71,0.00,,,0.00,Wunderground v.1.15,2013-01-15 06:42:00,
2013-01-15 00:48:00,8.4,0.6,30.45,NE,34,0.0,0.0,70,0.00,,,0.00,Wunderground v.1.15,2013-01-15 06:48:00,
2013-01-15 00:54:00,8.3,0.8,30.46,NE,34,0.0,0.0,71,0.00,,,0.00,Wunderground v.1.15,2013-01-15 06:54:00,
2013-01-15 01:00:00,8.3,0.8,30.45,NE,34,0.0,0.0,71,0.00,,,0.00,Wunderground v.1.15,2013-01-15 07:00:00,
2013-01-15 01:06:00,8.2,0.7,30.45,NE,35,0.0,0.0,71,0.00,,,0.00,Wunderground v.1.15,2013-01-15 07:06:00,
2013-01-15 01:12:00,8.1,0.6,30.45,NE,35,0.0,0.0,71,0.00,,,0.00,Wunderground v.1.15,2013-01-15 07:12:00,
2013-01-15 01:18:00,8.1,0.6,30.45,NE,35,0.0,0.0,71,0.00,,,0.00,Wunderground v.1.15,2013-01-15 07:18:00,
2013-01-15 01:24:00,8.0,0.5,30.45,NE,35,0.0,0.0,71,0.00,,,0.00,Wunderground v.1.15,2013-01-15 07:24:00,
2013-01-15 01:30:00,8.1,0.6,30.45,NE,35,0.0,0.0,71,0.00,,,0.00,Wunderground v.1.15,2013-01-15 07:30:00,
2013-01-15 01:36:00,8.1,0.6,30.45,NE,35,0.0,0.0,71,0.00,,,0.00,Wunderground v.1.15,2013-01-15 07:36:00,
2013-01-15 01:42:00,8.1,0.6,30.45,NE,34,0.0,0.0,71,0.00,,,0.00,Wunderground v.1.15,2013-01-15 07:42:00,
2013-01-15 01:48:00,8.2,0.7,30.45,NE,35,0.0,0.0,71,0.00,,,0.00,Wunderground v.1.15,2013-01-15 07:48:00,
2013-01-15 01:54:00,8.2,0.7,30.44,NE,35,0.0,0.0,71,0.00,,,0.00,Wunderground v.1.15,2013-01-15 07:54:00,
2013-01-15 02:00:00,8.1,0.6,30.44,NE,35,0.0,0.0,71,0.00,,,0.00,Wunderground v.1.15,2013-01-15 08:00:00,
2013-01-15 02:06:00,8.1,0.6,30.44,NE,35,0.0,0.0,71,0.00,,,0.00,Wunderground v.1.15,2013-01-15 08:06:00,
2013-01-15 02:12:00,8.1,0.6,30.44,NE,35,0.0,0.0,71,0.00,,,0.00,Wunderground v.1.15,2013-01-15 08:12:00,
2013-01-15 02:18:00,8.1,0.6,30.44,NE,35,0.0,0.0,71,0.00,,,0.00,Wunderground v.1.15,2013-01-15 08:18:00,
2013-01-15 02:24:00,8.0,0.5,30.44,NE,35,0.0,0.0,71,0.00,,,0.00,Wunderground v.1.15,2013-01-15 08:24:00,
2013-01-15 02:30:00,7.9,0.4,30.44,NE,35,0.0,0.0,71,0.00,,,0.00,Wunderground v.1.15,2013-01-15 08:30:00,
2013-01-15 02:36:00,7.8,0.3,30.44,NE,35,0.0,0.0,71,0.00,,,0.00,Wunderground v.1.15,2013-01-15 08:36:00,
2013-01-15 02:42:00,7.7,0.2,30.44,NE,34,0.0,0.0,71,0.00,,,0.00,Wunderground v.1.15,2013-01-15 08:42:00,
2013-01-15 02:48:00,7.7,0.2,30.44,NE,35,0.0,0.0,71,0.00,,,0.00,Wunderground v.1.15,2013-01-15 08:48:00,
2013-01-15 02:54:00,7.6,0.2,30.44,NE,35,0.0,0.0,71,0.00,,,0.00,Wunderground v.1.15,2013-01-15 08:54:00,
2013-01-15 03:00:00,7.5,0.1,30.44,NE,35,0.0,0.0,71,0.00,,,0.00,Wunderground v.1.15,2013-01-15 09:00:00,
2013-01-15 03:06:00,7.4,0.0,30.44,NE,35,0.0,0.0,71,0.00,,,0.00,Wunderground v.1.15,2013-01-15 09:06:00,
2013-01-15 03:12:00,7.3,-0.1,30.44,NE,35,0.0,0.0,71,0.00,,,0.00,Wunderground v.1.15,2013-01-15 09:12:00,
2013-01-15 09:32:00,19.8,13.5,30.40,ENE,62,2.0,2.0,76,0.00,,,0.00,Wunderground v.1.15,2013-01-15 15:32:00,
2013-01-15 09:38:00,20.3,13.9,30.40,ENE,63,1.0,2.0,76,0.00,,,0.00,Wunderground v.1.15,2013-01-15 15:38:00,
2013-01-15 09:44:00,20.7,14.3,30.40,ENE,65,1.0,3.0,76,0.00,,,0.00,Wunderground v.1.15,2013-01-15 15:44:00,
2013-01-15 09:50:00,21.0,14.6,30.40,ENE,64,2.0,3.0,76,0.00,,,0.00,Wunderground v.1.15,2013-01-15 15:50:00,
2013-01-15 09:56:00,21.3,14.9,30.39,ENE,68,2.0,4.0,76,0.00,,,0.00,Wunderground v.1.15,2013-01-15 15:56:00,
2013-01-15 10:02:00,21.5,15.1,30.40,ENE,77,2.0,2.0,76,0.00,,,0.00,Wunderground v.1.15,2013-01-15 16:02:00,
2013-01-15 10:08:00,21.7,15.3,30.41,East,79,2.0,3.0,76,0.00,,,0.00,Wunderground v.1.15,2013-01-15 16:08:00,
2013-01-15 10:14:00,21.9,15.5,30.41,East,80,1.0,2.0,76,0.00,,,0.00,Wunderground v.1.15,2013-01-15 16:14:00,
2013-01-15 10:20:00,22.2,15.8,30.41,East,83,0.0,1.0,76,0.00,,,0.00,Wunderground v.1.15,2013-01-15 16:20:00,
2013-01-15 10:26:00,22.4,16.0,30.41,East,83,1.0,2.0,76,0.00,,,0.00,Wunderground v.1.15,2013-01-15 16:26:00,
2013-01-15 10:32:00,22.4,16.0,30.41,East,83,1.0,6.0,76,0.00,,,0.00,Wunderground v.1.15,2013-01-15 16:32:00,
2013-01-15 10:38:00,22.5,16.1,30.41,East,82,0.0,6.0,76,0.00,,,0.00,Wunderground v.1.15,2013-01-15 16:38:00,
2013-01-15 10:44:00,22.4,16.0,30.41,East,82,0.0,6.0,76,0.00,,,0.00,Wunderground v.1.15,2013-01-15 16:44:00,
2013-01-15 10:50:00,22.5,16.1,30.41,East,82,0.0,6.0,76,0.00,,,0.00,Wunderground v.1.15,2013-01-15 16:50:00,
2013-01-15 10:56:00,22.6,16.2,30.41,East,82,0.0,6.0,76,0.00,,,0.00,Wunderground v.1.15,2013-01-15 16:56:00,
2013-01-15 11:02:00,22.8,16.4,30.41,East,82,0.0,6.0,76,0.00,,,0.00,Wunderground v.1.15,2013-01-15 17:02:00,
2013-01-15 11:08:00,23.0,16.6,30.41,East,83,1.0,6.0,76,0.00,,,0.00,Wunderground v.1.15,2013-01-15 17:08:00,
2013-01-15 11:14:00,23.1,16.7,30.41,East,83,1.0,6.0,76,0.00,,,0.00,Wunderground v.1.15,2013-01-15 17:14:00,
2013-01-15 11:20:00,23.2,16.8,30.41,East,83,0.0,6.0,76,0.00,,,0.00,Wunderground v.1.15,2013-01-15 17:20:00,
2013-01-15 11:26:00,23.4,16.9,30.41,East,83,0.0,6.0,76,0.00,,,0.00,Wunderground v.1.15,2013-01-15 17:26:00,
2013-01-15 11:32:00,23.6,17.1,30.40,East,83,0.0,6.0,76,0.00,,,0.00,Wunderground v.1.15,2013-01-15 17:32:00,
2013-01-15 11:38:00,24.1,17.6,30.40,East,96,2.0,6.0,76,0.00,,,0.00,Wunderground v.1.15,2013-01-15 17:38:00,
2013-01-15 11:44:00,24.4,17.9,30.39,ESE,103,2.0,6.0,76,0.00,,,0.00,Wunderground v.1.15,2013-01-15 17:44:00,
2013-01-15 11:50:00,24.5,18.0,30.39,ESE,103,1.0,1.0,76,0.00,,,0.00,Wunderground v.1.15,2013-01-15 17:50:00,
2013-01-15 11:56:00,24.7,18.2,30.38,ESE,103,0.0,6.0,76,0.00,,,0.00,Wunderground v.1.15,2013-01-15 17:56:00,
2013-01-15 12:02:00,24.9,18.4,30.38,ESE,102,0.0,0.0,76,0.00,,,0.00,Wunderground v.1.15,2013-01-15 18:02:00,
2013-01-15 12:08:00,24.9,18.1,30.38,ESE,103,0.0,2.0,75,0.00,,,0.00,Wunderground v.1.15,2013-01-15 18:08:00,
2013-01-15 12:14:00,24.9,18.1,30.37,ESE,103,1.0,1.0,75,0.00,,,0.00,Wunderground v.1.15,2013-01-15 18:14:00,
2013-01-15 12:20:00,25.1,18.3,30.36,ESE,103,0.0,0.0,75,0.00,,,0.00,Wunderground v.1.15,2013-01-15 18:20:00,
2013-01-15 12:26:00,25.1,18.3,30.36,ESE,103,1.0,2.0,75,0.00,,,0.00,Wunderground v.1.15,2013-01-15 18:26:00,
2013-01-15 12:32:00,25.3,18.5,30.35,ESE,102,1.0,1.0,75,0.00,,,0.00,Wunderground v.1.15,2013-01-15 18:32:00,
2013-01-15 12:38:00,25.6,18.8,30.34,ESE,103,0.0,1.0,75,0.00,,,0.00,Wunderground v.1.15,2013-01-15 18:38:00,
2013-01-15 12:44:00,25.8,19.0,30.34,ESE,103,0.0,0.0,75,0.00,,,0.00,Wunderground v.1.15,2013-01-15 18:44:00,
2013-01-15 12:50:00,26.0,19.2,30.34,ESE,103,0.0,0.0,75,0.00,,,0.00,Wunderground v.1.15,2013-01-15 18:50:00,
2013-01-15 12:56:00,26.0,19.2,30.34,ESE,102,0.0,1.0,75,0.00,,,0.00,Wunderground v.1.15,2013-01-15 18:56:00,
2013-01-15 13:02:00,25.9,19.1,30.34,ESE,102,0.0,4.0,75,0.00,,,0.00,Wunderground v.1.15,2013-01-15 19:02:00,
2013-01-15 13:08:00,25.9,18.7,30.34,ESE,103,0.0,4.0,74,0.00,,,0.00,Wunderground v.1.15,2013-01-15 19:08:00,
2013-01-15 13:14:00,26.0,18.8,30.34,ESE,103,0.0,4.0,74,0.00,,,0.00,Wunderground v.1.15,2013-01-15 19:14:00,
2013-01-15 13:20:00,26.0,18.8,30.34,ESE,103,0.0,4.0,74,0.00,,,0.00,Wunderground v.1.15,2013-01-15 19:20:00,
2013-01-15 13:26:00,26.0,18.8,30.34,ESE,102,0.0,4.0,74,0.00,,,0.00,Wunderground v.1.15,2013-01-15 19:26:00,
2013-01-15 13:32:00,26.1,18.9,30.34,ESE,103,0.0,4.0,74,0.00,,,0.00,Wunderground v.1.15,2013-01-15 19:32:00,
2013-01-15 13:38:00,26.5,19.6,30.33,ESE,103,0.0,4.0,75,0.00,,,0.00,Wunderground v.1.15,2013-01-15 19:38:00,
2013-01-15 13:44:00,26.7,19.5,30.33,ESE,102,0.0,4.0,74,0.00,,,0.00,Wunderground v.1.15,2013-01-15 19:44:00,
2013-01-15 13:50:00,26.9,19.7,30.33,NE,56,1.0,4.0,74,0.00,,,0.00,Wunderground v.1.15,2013-01-15 19:50:00,
2013-01-15 13:56:00,27.2,20.0,30.33,NE,40,2.0,4.0,74,0.00,,,0.00,Wunderground v.1.15,2013-01-15 19:56:00,
2013-01-15 14:02:00,27.3,20.1,30.33,NE,40,1.0,4.0,74,0.00,,,0.00,Wunderground v.1.15,2013-01-15 20:02:00,
2013-01-15 14:08:00,27.2,19.7,30.33,NE,40,0.0,4.0,73,0.00,,,0.00,Wunderground v.1.15,2013-01-15 20:08:00,
2013-01-15 14:14:00,27.4,19.9,30.33,NE,40,0.0,4.0,73,0.00,,,0.00,Wunderground v.1.15,2013-01-15 20:14:00,
2013-01-15 14:20:00,27.6,20.1,30.33,NE,40,0.0,4.0,73,0.00,,,0.00,Wunderground v.1.15,2013-01-15 20:20:00,
2013-01-15 14:26:00,27.9,20.7,30.32,NE,40,0.0,4.0,74,0.00,,,0.00,Wunderground v.1.15,2013-01-15 20:26:00,
2013-01-15 14:32:00,28.0,20.5,30.32,NE,42,0.0,2.0,73,0.00,,,0.00,Wunderground v.1.15,2013-01-15 20:32:00,
2013-01-15 14:38:00,28.0,20.5,30.32,NE,42,0.0,4.0,73,0.00,,,0.00,Wunderground v.1.15,2013-01-15 20:38:00,
2013-01-15 14:44:00,27.9,20.4,30.32,NE,36,2.0,4.0,73,0.00,,,0.00,Wunderground v.1.15,2013-01-15 20:44:00,
2013-01-15 14:50:00,27.8,19.9,30.32,NE,36,2.0,4.0,72,0.00,,,0.01,Wunderground v.1.15,2013-01-15 20:50:00,
2013-01-15 14:56:00,27.7,19.8,30.32,NE,36,2.0,4.0,72,0.00,,,0.01,Wunderground v.1.15,2013-01-15 20:56:00,
2013-01-15 15:02:00,27.6,19.8,30.32,NE,36,1.0,1.0,72,0.00,,,0.01,Wunderground v.1.15,2013-01-15 21:02:00,
2013-01-15 15:08:00,27.6,19.8,30.32,NE,36,1.0,6.0,72,0.00,,,0.01,Wunderground v.1.15,2013-01-15 21:08:00,
2013-01-15 15:14:00,27.6,19.8,30.32,NE,36,2.0,4.0,72,0.00,,,0.01,Wunderground v.1.15,2013-01-15 21:14:00,
2013-01-15 15:20:00,27.5,19.7,30.32,NE,36,1.0,1.0,72,0.00,,,0.01,Wunderground v.1.15,2013-01-15 21:20:00,
2013-01-15 15:26:00,27.5,19.7,30.32,NE,36,1.0,1.0,72,0.00,,,0.01,Wunderground v.1.15,2013-01-15 21:26:00,
2013-01-15 15:32:00,27.5,19.7,30.31,NE,36,1.0,1.0,72,0.00,,,0.01,Wunderground v.1.15,2013-01-15 21:32:00,
2013-01-15 15:38:00,27.5,19.7,30.31,NE,36,1.0,1.0,72,0.00,,,0.01,Wunderground v.1.15,2013-01-15 21:38:00,
2013-01-15 15:44:00,27.5,19.7,30.31,NE,37,1.0,1.0,72,0.00,,,0.01,Wunderground v.1.15,2013-01-15 21:44:00,
2013-01-15 15:50:00,27.4,19.2,30.30,NE,42,1.0,1.0,71,0.00,,,0.01,Wunderground v.1.15,2013-01-15 21:50:00,
2013-01-15 15:56:00,27.4,19.2,30.30,NE,42,1.0,5.0,71,0.00,,,0.01,Wunderground v.1.15,2013-01-15 21:56:00,
2013-01-15 16:02:00,27.4,19.2,30.30,NE,37,2.0,5.0,71,0.00,,,0.01,Wunderground v.1.15,2013-01-15 22:02:00,
2013-01-15 16:08:00,27.2,19.0,30.30,NE,36,2.0,5.0,71,0.00,,,0.01,Wunderground v.1.15,2013-01-15 22:08:00,
2013-01-15 16:14:00,27.1,18.9,30.31,NE,36,2.0,5.0,71,0.00,,,0.01,Wunderground v.1.15,2013-01-15 22:14:00,
2013-01-15 16:20:00,27.0,18.5,30.30,NE,36,1.0,5.0,70,0.00,,,0.01,Wunderground v.1.15,2013-01-15 22:20:00,
2013-01-15 16:26:00,26.9,18.4,30.30,NE,36,1.0,5.0,70,0.00,,,0.01,Wunderground v.1.15,2013-01-15 22:26:00,
2013-01-15 16:32:00,26.7,18.2,30.30,NE,36,0.0,5.0,70,0.00,,,0.01,Wunderground v.1.15,2013-01-15 22:32:00,
2013-01-15 16:38:00,26.5,18.0,30.30,NE,36,0.0,5.0,70,0.00,,,0.01,Wunderground v.1.15,2013-01-15 22:38:00,
2013-01-15 16:44:00,26.3,17.8,30.29,NE,36,0.0,5.0,70,0.00,,,0.01,Wunderground v.1.15,2013-01-15 22:44:00,
2013-01-15 16:50:00,26.2,17.7,30.29,NE,36,0.0,5.0,70,0.00,,,0.01,Wunderground v.1.15,2013-01-15 22:50:00,
2013-01-15 16:56:00,26.1,17.6,30.29,NE,36,0.0,5.0,70,0.00,,,0.01,Wunderground v.1.15,2013-01-15 22:56:00,
2013-01-15 17:02:00,26.0,17.6,30.28,NE,36,0.0,5.0,70,0.00,,,0.01,Wunderground v.1.15,2013-01-15 23:02:00,
2013-01-15 17:08:00,25.9,17.5,30.28,NE,36,0.0,5.0,70,0.00,,,0.01,Wunderground v.1.15,2013-01-15 23:08:00,
2013-01-15 17:14:00,25.8,17.4,30.28,NE,36,0.0,5.0,70,0.00,,,0.01,Wunderground v.1.15,2013-01-15 23:14:00,
2013-01-15 17:20:00,25.6,17.2,30.28,NE,36,0.0,5.0,70,0.00,,,0.01,Wunderground v.1.15,2013-01-15 23:20:00,
2013-01-15 17:26:00,25.5,17.1,30.28,NE,36,0.0,5.0,70,0.00,,,0.01,Wunderground v.1.15,2013-01-15 23:26:00,
2013-01-15 17:32:00,25.4,17.0,30.28,NE,36,0.0,5.0,70,0.00,,,0.01,Wunderground v.1.15,2013-01-15 23:32:00,
2013-01-15 17:38:00,25.3,16.9,30.28,NE,36,0.0,5.0,70,0.00,,,0.01,Wunderground v.1.15,2013-01-15 23:38:00,
2013-01-15 17:44:00,25.1,16.7,30.28,NE,36,0.0,5.0,70,0.00,,,0.01,Wunderground v.1.15,2013-01-15 23:44:00,
2013-01-15 17:50:00,24.9,16.5,30.28,NE,36,0.0,5.0,70,0.00,,,0.01,Wunderground v.1.15,2013-01-15 23:50:00,
2013-01-15 17:56:00,24.7,16.3,30.28,NE,36,0.0,5.0,70,0.00,,,0.01,Wunderground v.1.15,2013-01-15 23:56:00,
2013-01-15 18:02:00,24.6,15.9,30.28,NE,36,0.0,0.0,69,0.00,,,0.01,Wunderground v.1.15,2013-01-16 00:02:00,
2013-01-15 18:08:00,24.4,15.7,30.28,NE,36,0.0,0.0,69,0.00,,,0.01,Wunderground v.1.15,2013-01-16 00:08:00,
2013-01-15 18:14:00,24.2,15.5,30.28,NE,36,0.0,0.0,69,0.00,,,0.01,Wunderground v.1.15,2013-01-16 00:14:00,
2013-01-15 18:20:00,24.0,15.6,30.28,NE,36,0.0,0.0,70,0.00,,,0.01,Wunderground v.1.15,2013-01-16 00:20:00,
2013-01-15 18:26:00,23.8,15.1,30.28,NE,36,0.0,0.0,69,0.00,,,0.01,Wunderground v.1.15,2013-01-16 00:26:00,
2013-01-15 18:32:00,23.7,15.3,30.28,NE,36,0.0,0.0,70,0.00,,,0.01,Wunderground v.1.15,2013-01-16 00:32:00,
2013-01-15 18:38:00,23.6,15.2,30.27,NE,36,0.0,0.0,70,0.00,,,0.01,Wunderground v.1.15,2013-01-16 00:38:00,
2013-01-15 18:44:00,23.5,15.1,30.27,NE,36,0.0,0.0,70,0.00,,,0.01,Wunderground v.1.15,2013-01-16 00:44:00,
2013-01-15 18:50:00,23.4,15.1,30.27,NE,36,0.0,0.0,70,0.00,,,0.01,Wunderground v.1.15,2013-01-16 00:50:00,
2013-01-15 18:56:00,23.2,14.9,30.26,NE,36,0.0,0.0,70,0.00,,,0.01,Wunderground v.1.15,2013-01-16 00:56:00,
2013-01-15 19:02:00,23.1,14.8,30.26,NE,36,0.0,0.0,70,0.00,,,0.01,Wunderground v.1.15,2013-01-16 01:02:00,
2013-01-15 19:08:00,22.9,14.6,30.26,NE,36,0.0,0.0,70,0.00,,,0.01,Wunderground v.1.15,2013-01-16 01:08:00,
2013-01-15 19:14:00,22.8,14.5,30.26,NE,36,0.0,0.0,70,0.00,,,0.01,Wunderground v.1.15,2013-01-16 01:14:00,
2013-01-15 19:20:00,22.6,14.3,30.26,NE,36,0.0,0.0,70,0.00,,,0.01,Wunderground v.1.15,2013-01-16 01:20:00,
2013-01-15 19:26:00,22.4,14.1,30.27,NE,36,0.0,0.0,70,0.00,,,0.01,Wunderground v.1.15,2013-01-16 01:26:00,
2013-01-15 19:32:00,22.1,13.5,30.26,NE,36,0.0,0.0,69,0.00,,,0.01,Wunderground v.1.15,2013-01-16 01:32:00,
2013-01-15 19:38:00,21.9,13.3,30.26,NE,36,0.0,0.0,69,0.00,,,0.01,Wunderground v.1.15,2013-01-16 01:38:00,
2013-01-15 19:44:00,21.6,13.3,30.26,NE,36,0.0,0.0,70,0.00,,,0.01,Wunderground v.1.15,2013-01-16 01:44:00,
2013-01-15 19:50:00,21.4,12.8,30.26,NE,36,0.0,0.0,69,0.00,,,0.01,Wunderground v.1.15,2013-01-16 01:50:00,
2013-01-15 19:56:00,21.1,12.8,30.26,NE,36,0.0,0.0,70,0.00,,,0.01,Wunderground v.1.15,2013-01-16 01:56:00,
2013-01-15 20:02:00,20.9,12.6,30.26,NE,36,0.0,0.0,70,0.00,,,0.01,Wunderground v.1.15,2013-01-16 02:02:00,
2013-01-15 20:08:00,20.8,12.6,30.26,NE,36,0.0,0.0,70,0.00,,,0.01,Wunderground v.1.15,2013-01-16 02:08:00,
2013-01-15 20:14:00,20.7,12.5,30.25,NE,36,0.0,0.0,70,0.00,,,0.01,Wunderground v.1.15,2013-01-16 02:14:00,
2013-01-15 20:20:00,20.7,12.5,30.26,NE,36,0.0,0.0,70,0.00,,,0.01,Wunderground v.1.15,2013-01-16 02:20:00,
2013-01-15 20:26:00,20.7,12.5,30.26,NE,36,0.0,0.0,70,0.00,,,0.01,Wunderground v.1.15,2013-01-16 02:26:00,
2013-01-15 20:32:00,20.7,12.5,30.25,NE,36,0.0,0.0,70,0.00,,,0.01,Wunderground v.1.15,2013-01-16 02:32:00,
2013-01-15 20:38:00,20.6,12.4,30.25,NE,36,0.0,0.0,70,0.00,,,0.01,Wunderground v.1.15,2013-01-16 02:38:00,
2013-01-15 20:44:00,20.4,12.2,30.25,NE,36,0.0,0.0,70,0.00,,,0.01,Wunderground v.1.15,2013-01-16 02:44:00,
2013-01-15 20:50:00,20.3,12.1,30.25,NE,36,0.0,0.0,70,0.00,,,0.01,Wunderground v.1.15,2013-01-16 02:50:00,
2013-01-15 20:56:00,20.1,11.9,30.25,NE,36,0.0,0.0,70,0.00,,,0.01,Wunderground v.1.15,2013-01-16 02:56:00,
2013-01-15 21:02:00,19.9,11.7,30.24,NE,36,0.0,0.0,70,0.00,,,0.01,Wunderground v.1.15,2013-01-16 03:02:00,
2013-01-15 21:08:00,19.7,11.5,30.24,NE,36,0.0,0.0,70,0.00,,,0.01,Wunderground v.1.15,2013-01-16 03:08:00,
2013-01-15 21:14:00,19.4,11.2,30.24,NE,36,0.0,0.0,70,0.00,,,0.01,Wunderground v.1.15,2013-01-16 03:14:00,
2013-01-15 21:20:00,19.1,10.9,30.24,NE,36,0.0,0.0,70,0.00,,,0.01,Wunderground v.1.15,2013-01-16 03:20:00,
2013-01-15 21:26:00,18.9,10.7,30.24,NE,36,0.0,0.0,70,0.00,,,0.01,Wunderground v.1.15,2013-01-16 03:26:00,
2013-01-15 21:32:00,18.5,10.3,30.23,NE,36,0.0,0.0,70,0.00,,,0.01,Wunderground v.1.15,2013-01-16 03:32:00,
2013-01-15 21:38:00,18.3,10.1,30.23,NE,36,0.0,0.0,70,0.00,,,0.01,Wunderground v.1.15,2013-01-16 03:38:00,
2013-01-15 21:44:00,18.0,9.9,30.23,NE,36,0.0,0.0,70,0.00,,,0.01,Wunderground v.1.15,2013-01-16 03:44:00,
2013-01-15 21:50:00,17.7,9.9,30.23,NE,36,0.0,0.0,71,0.00,,,0.01,Wunderground v.1.15,2013-01-16 03:50:00,
2013-01-15 21:56:00,17.5,9.7,30.23,NE,36,0.0,0.0,71,0.00,,,0.01,Wunderground v.1.15,2013-01-16 03:56:00,
2013-01-15 22:02:00,17.2,9.4,30.23,NE,36,0.0,0.0,71,0.00,,,0.01,Wunderground v.1.15,2013-01-16 04:02:00,
2013-01-15 22:08:00,16.9,9.1,30.23,NE,36,0.0,0.0,71,0.00,,,0.01,Wunderground v.1.15,2013-01-16 04:08:00,
2013-01-15 22:14:00,16.7,8.9,30.23,NE,36,0.0,0.0,71,0.00,,,0.01,Wunderground v.1.15,2013-01-16 04:14:00,
2013-01-15 22:20:00,16.4,8.6,30.23,NE,36,0.0,0.0,71,0.00,,,0.01,Wunderground v.1.15,2013-01-16 04:20:00,
2013-01-15 22:26:00,16.2,8.4,30.23,NE,36,0.0,0.0,71,0.00,,,0.01,Wunderground v.1.15,2013-01-16 04:26:00,
2013-01-15 22:32:00,16.0,8.3,30.22,NE,36,0.0,0.0,71,0.00,,,0.01,Wunderground v.1.15,2013-01-16 04:32:00,
2013-01-15 22:38:00,15.8,8.1,30.22,NE,36,0.0,0.0,71,0.00,,,0.01,Wunderground v.1.15,2013-01-16 04:38:00,
2013-01-15 22:44:00,15.5,7.8,30.21,NE,36,0.0,0.0,71,0.00,,,0.01,Wunderground v.1.15,2013-01-16 04:44:00,
2013-01-15 22:50:00,15.3,7.6,30.21,NE,36,0.0,0.0,71,0.00,,,0.01,Wunderground v.1.15,2013-01-16 04:50:00,
2013-01-15 22:56:00,15.0,7.3,30.21,NE,36,0.0,0.0,71,0.00,,,0.01,Wunderground v.1.15,2013-01-16 04:56:00,
2013-01-15 23:02:00,14.8,7.1,30.21,NE,36,0.0,0.0,71,0.00,,,0.01,Wunderground v.1.15,2013-01-16 05:02:00,
2013-01-15 23:04:00,14.7,7.0,30.21,NE,36,0.0,0.0,71,0.00,,,0.01,Wunderground v.1.15,2013-01-16 05:04:00,
2013-01-15 23:06:00,14.6,6.9,30.21,NE,36,0.0,0.0,71,0.00,,,0.01,Wunderground v.1.15,2013-01-16 05:06:00,
2013-01-15 23:10:00,14.5,6.8,30.21,NE,36,0.0,0.0,71,0.00,,,0.01,Wunderground v.1.15,2013-01-16 05:10:00,
2013-01-15 23:16:00,14.3,6.6,30.20,NE,36,0.0,0.0,71,0.00,,,0.01,Wunderground v.1.15,2013-01-16 05:16:00,
2013-01-15 23:22:00,14.2,6.5,30.20,NE,36,0.0,0.0,71,0.00,,,0.01,Wunderground v.1.15,2013-01-16 05:22:00,
2013-01-15 23:28:00,14.0,6.3,30.20,NE,36,0.0,0.0,71,0.00,,,0.01,Wunderground v.1.15,2013-01-16 05:28:00,
2013-01-15 23:34:00,13.9,6.2,30.21,NE,36,0.0,0.0,71,0.00,,,0.01,Wunderground v.1.15,2013-01-16 05:34:00,
2013-01-15 23:40:00,13.7,6.0,30.21,NE,36,0.0,0.0,71,0.00,,,0.01,Wunderground v.1.15,2013-01-16 05:40:00,
2013-01-15 23:46:00,13.6,5.9,30.20,NE,36,0.0,0.0,71,0.00,,,0.01,Wunderground v.1.15,2013-01-16 05:46:00,
2013-01-15 23:52:00,13.4,5.7,30.21,NE,36,0.0,0.0,71,0.00,,,0.01,Wunderground v.1.15,2013-01-16 05:52:00,
2013-01-15 23:58:00,13.2,5.6,30.21,NE,36,0.0,0.0,71,0.00,,,0.01,Wunderground v.1.15,2013-01-16 05:58:00,